Location: Étavigny
(49.1201°N, 2.9800°E)
Time: 23:29:00
(UTC+00:00)

NOSS 2-1 (C) - Pass Details

Date: 28 January 2023
Orbit: 403 x 1774 km, 63.3° (Epoch: 27 March)

Event Time Altitude Azimuth Distance (km) Brightness Sun altitude
Rises 16:59:27 0° 322° (NW) 2,562 6.9 -4.0°
Reaches altitude 10° 17:01:29 10° 332° (NNW) 1,793 6.0 -4.3°
Maximum altitude 17:05:10 36° 40° (NE) 1,028 4.3 -4.9°
Drops below altitude 10° 17:10:04 10° 107° (ESE) 2,404 6.1 -5.6°
Sets 17:13:11 0° 115° (ESE) 3,590 7.0 -6.1°
